Actual water levels and discharges of Vltava river

Vraňany

Date and time (UTC) H (cm) Q (m³/s)
21. 10. 2021 01:20 56 105
21. 10. 2021 01:00 56 105
21. 10. 2021 00:00 56 105
20. 10. 2021 23:00 48 95
20. 10. 2021 22:00 40 85
20. 10. 2021 21:00 39 84
20. 10. 2021 20:00 47 94
20. 10. 2021 19:00 45 91
20. 10. 2021 18:00 46 92
20. 10. 2021 17:00 55 104
20. 10. 2021 16:00 76 130
20. 10. 2021 15:00 77 131
20. 10. 2021 14:00 56 105
20. 10. 2021 13:00 53 101

H - water level, Q - discharge

Praha-Chuchle

Date and time (UTC) H (cm) Q (m³/s)
21. 10. 2021 01:20 61 100
21. 10. 2021 01:00 61 100
21. 10. 2021 00:00 61 100
20. 10. 2021 23:00 60 96
20. 10. 2021 22:00 60 96
20. 10. 2021 21:00 60 96
20. 10. 2021 20:00 60 96
20. 10. 2021 19:00 59 92
20. 10. 2021 18:00 59 92
20. 10. 2021 17:00 59 92
20. 10. 2021 16:00 59 92
20. 10. 2021 15:00 59 92
20. 10. 2021 14:00 60 96
20. 10. 2021 13:00 60 96

H - water level, Q - discharge
more information

VD Vrané nad Vltavou

Date and time (UTC) H (m n. m.) Q (m³/s)
21. 10. 2021 01:20 200 72.1
21. 10. 2021 01:00 199.99 71
21. 10. 2021 00:00 199.95 79
20. 10. 2021 23:00 199.93 77
20. 10. 2021 22:00 199.89 73
20. 10. 2021 21:00 199.80 72
20. 10. 2021 20:00 199.66 74
20. 10. 2021 19:00 199.54 72
20. 10. 2021 18:00 199.39 75
20. 10. 2021 17:00 199.36 71
20. 10. 2021 16:00 199.42 69
20. 10. 2021 15:00 199.51 65
20. 10. 2021 14:00 199.61 66
20. 10. 2021 13:00 199.70 70

H - water level, Q - outflow

VD Štěchovice

Date and time (UTC) H (m n. m.) Q (m³/s)
21. 10. 2021 01:20 218.65 0
21. 10. 2021 01:00 218.67 90
21. 10. 2021 00:00 218.81 90
20. 10. 2021 23:00 218.88 90
20. 10. 2021 22:00 218.85 99
20. 10. 2021 21:00 218.61 150
20. 10. 2021 20:00 218.35 150
20. 10. 2021 19:00 218.10 150
20. 10. 2021 18:00 217.89 160
20. 10. 2021 17:00 217.77 66
20. 10. 2021 16:00 217.62 0
20. 10. 2021 15:00 217.34 0
20. 10. 2021 14:00 216.97 0
20. 10. 2021 13:00 216.67 0

H - water level, Q - outflow

VD Slapy

Date and time (UTC) H (m n. m.) Q (m³/s)
21. 10. 2021 01:20 268.29 0
21. 10. 2021 01:00 268.29 45
21. 10. 2021 00:00 268.30 54
20. 10. 2021 23:00 268.30 69
20. 10. 2021 22:00 268.30 150
20. 10. 2021 21:00 268.31 182
20. 10. 2021 20:00 268.29 211
20. 10. 2021 19:00 268.32 211
20. 10. 2021 18:00 268.30 174
20. 10. 2021 17:00 268.30 77
20. 10. 2021 16:00 268.32 73
20. 10. 2021 15:00 268.32 72
20. 10. 2021 14:00 268.37 53
20. 10. 2021 13:00 268.36 12

H - water level, Q - outflow

VD Kamýk

Date and time (UTC) H (m n. m.) Q (m³/s)
21. 10. 2021 01:20 283.88 -
21. 10. 2021 01:00 283.93 -
21. 10. 2021 00:00 283.94 -
20. 10. 2021 23:00 283.80 -
20. 10. 2021 22:00 283.52 -
20. 10. 2021 21:00 283.25 -
20. 10. 2021 20:00 283.07 -
20. 10. 2021 19:00 282.80 -
20. 10. 2021 18:00 282.52 -
20. 10. 2021 17:00 282.55 -
20. 10. 2021 16:00 282.84 -
20. 10. 2021 15:00 282.91 -
20. 10. 2021 14:00 282.90 -
20. 10. 2021 13:00 282.95 -

H - water level, Q - outflow

VD Orlík

Date and time (UTC) H (m n. m.) Q (m³/s)
21. 10. 2021 01:20 348.99 0
21. 10. 2021 01:00 348.99 0
21. 10. 2021 00:00 348.98 79
20. 10. 2021 23:00 348.99 227
20. 10. 2021 22:00 349.02 229
20. 10. 2021 21:00 349.05 262
20. 10. 2021 20:00 349.09 320
20. 10. 2021 19:00 349.14 332
20. 10. 2021 18:00 349.17 228
20. 10. 2021 17:00 349.20 36
20. 10. 2021 16:00 349.19 0
20. 10. 2021 15:00 349.18 0
20. 10. 2021 14:00 349.18 0
20. 10. 2021 13:00 349.17 0

H - water level, Q - outflow

VD Kořensko

Date and time (UTC) H (m n. m.) Q (m³/s)
21. 10. 2021 01:20 352.46 30.3
21. 10. 2021 01:00 352.46 30
21. 10. 2021 00:00 352.46 30
20. 10. 2021 23:00 352.46 30
20. 10. 2021 22:00 352.46 31
20. 10. 2021 21:00 352.46 31
20. 10. 2021 20:00 352.46 31
20. 10. 2021 19:00 352.46 31
20. 10. 2021 18:00 352.47 31
20. 10. 2021 17:00 352.47 31
20. 10. 2021 16:00 352.47 31
20. 10. 2021 15:00 352.47 31
20. 10. 2021 14:00 352.47 32
20. 10. 2021 13:00 352.47 32

H - water level, Q - outflow

VD Hněvkovice I - přehrada

Date and time (UTC) H (m n. m.) Q (m³/s)
- - -

H - water level, Q - outflow

České Budějovice

Date and time (UTC) H (cm) Q (m³/s)
21. 10. 2021 01:20 101 18.3
21. 10. 2021 01:00 101 18
21. 10. 2021 00:00 101 18
20. 10. 2021 23:00 101 19
20. 10. 2021 22:00 101 18
20. 10. 2021 21:00 100 18
20. 10. 2021 20:00 102 19
20. 10. 2021 19:00 99 16
20. 10. 2021 18:00 102 18
20. 10. 2021 17:00 100 18
20. 10. 2021 16:00 100 19
20. 10. 2021 15:00 101 17
20. 10. 2021 14:00 100 17
20. 10. 2021 13:00 101 17

H - water level, Q - discharge
more information

Vyšší Brod

Date and time (UTC) H (cm) Q (m³/s)
21. 10. 2021 01:20 84 10.7
21. 10. 2021 01:00 84 11
21. 10. 2021 00:00 84 11
20. 10. 2021 23:00 84 11
20. 10. 2021 22:00 84 11
20. 10. 2021 21:00 83 10
20. 10. 2021 20:00 83 10
20. 10. 2021 19:00 83 10
20. 10. 2021 18:00 82 10
20. 10. 2021 17:00 81 10
20. 10. 2021 16:00 81 10
20. 10. 2021 15:00 81 10
20. 10. 2021 14:00 81 10
20. 10. 2021 13:00 81 10

H - water level, Q - discharge
Source data
Labe Basin Vltava Basin Povodí Moravy ČHMÚ